Location: Mound City (historical)
(34.0564°N, 117.2656°W)
Time: 03:10:26
(UTC+00:00)

Cosmos 2219 Rocket - Pass Details

Date: 08 September 2024
Orbit: 827 x 845 km, 71.0° (Epoch: 03 October)

Event Time Altitude Azimuth Distance (km) Brightness Sun altitude
Rises 12:49:20 0° 341° (NNW) 3,395 5.3 -8.7°
Reaches altitude 10° 12:51:48 10° 343° (NNW) 2,455 4.6 -8.2°
Maximum altitude 12:57:25 76° 68° (ENE) 862 2.5 -7.1°
Drops below altitude 10° 13:02:59 10° 155° (SSE) 2,429 4.8 -5.9°
Sets 13:05:25 0° 156° (SSE) 3,356 5.5 -5.4°
